Vorticity
2 1 -0 -0 0 1 1 -0 -1 -1 -1 -0 1 1 2 3 4 5 4 3 2 3 4 4 5 5 6 5 6 7 7 5 5 5 5 3 2 2 3 5 6 7 8 10 12 13 12 12 11 9 7 6 5 5 5 4 4 4 3 4 4 4 5 5 5 5 5 5 6 6 6 6 6 6 6 7 7 7 7 7 7 8 7 7 7 7 7 7 7 7 7 7 6 6 6 6 6 6 6 6 6 6 6
2 1 1 0 0 0 0 -0 -1 -1 -1 0 1 2 3 4 5 5 5 4 4 4 5 6 6 6 5 5 6 7 6 4 4 5 6 4 2 1 2 4 5 5 6 9 11 12 11 11 10 9 8 7 6 5 5 5 5 4 4 4 4 5 5 5 5 5 5 5 5 6 6 6 7 7 7 7 7 7 7 7 8 8 8 7 7 7 7 7 7 7 7 7 6 6 6 6 6 6 6 6 6 6 6
3 2 1 1 0 0 -0 -0 -0 -0 -0 1 2 3 4 5 5 5 6 6 5 6 7 7 7 7 6 5 5 6 6 4 4 5 8 5 2 0 1 4 5 6 6 9 10 11 11 10 10 9 9 8 7 6 6 5 5 5 5 4 4 4 5 5 5 5 5 5 5 6 6 6 6 7 7 7 7 7 7 7 8 8 8 7 7 7 7 6 6 6 6 6 6 6 6 6 6 6 6 6 6 6 6
2 1 1 0 0 -0 0 0 1 1 0 1 3 4 6 6 6 6 7 7 7 7 8 9 9 8 7 6 5 5 5 4 4 5 9 6 2 -1 0 3 5 6 8 9 11 12 12 11 10 9 9 8 7 6 5 5 4 4 4 4 4 4 4 5 5 5 5 5 6 6 7 6 6 6 6 6 6 7 7 7 8 8 8 7 7 7 7 6 6 6 6 6 6 6 6 6 6 6 6 6 6 6 6
2 1 0 0 0 1 1 1 1 1 1 1 3 5 6 7 7 7 8 8 8 8 9 10 10 10 9 7 6 5 5 4 5 7 10 6 2 -1 -1 2 4 7 9 10 11 12 12 11 10 9 9 8 7 7 6 5 4 4 4 4 4 4 4 5 5 5 5 6 6 6 6 7 7 7 6 6 6 6 7 7 7 8 8 7 7 7 7 6 6 6 6 6 6 6 6 6 6 6 6 6 6 6 6
2 1 1 1 1 1 2 2 2 1 1 1 3 5 6 7 7 8 8 9 8 8 9 10 11 11 10 8 7 6 6 5 7 9 10 6 2 -1 -1 1 4 7 10 11 11 12 11 10 10 9 9 8 8 7 6 5 4 4 4 4 4 4 5 5 5 5 5 6 6 6 6 6 6 6 6 6 6 6 7 7 7 8 8 7 7 7 7 7 6 6 6 6 6 6 6 6 6 6 6 6 6 6 6
2 2 2 2 2 3 3 3 2 1 1 1 3 4 5 6 6 7 9 9 8 8 9 11 12 12 11 9 7 6 7 7 8 10 9 5 2 -0 0 1 3 6 10 11 11 11 10 9 8 8 9 8 8 8 6 5 5 5 5 5 5 5 5 5 5 5 5 6 6 6 6 6 5 5 5 5 6 6 6 7 7 7 8 7 7 7 7 7 7 7 6 6 6 6 6 6 6 6 6 6 6 6 6
3 3 3 4 4 4 4 3 2 1 1 2 3 4 5 5 6 7 8 8 8 8 10 12 13 13 12 10 8 7 7 8 9 9 7 4 1 0 2 2 4 6 9 10 10 10 8 7 7 7 8 8 8 8 7 6 6 5 5 5 5 5 5 5 5 6 6 6 6 6 6 6 5 5 5 5 6 6 6 7 7 7 7 8 8 8 8 7 7 7 7 6 6 6 6 6 6 6 6 6 6 6 6
5 5 5 5 4 4 3 2 2 1 1 2 3 4 4 4 5 6 7 7 7 8 10 13 14 14 12 10 9 8 8 10 10 9 5 2 0 1 3 4 5 6 7 8 9 9 8 7 7 7 6 7 8 8 8 7 6 5 5 5 5 5 5 5 5 5 6 6 6 6 6 6 6 5 5 5 6 6 7 7 7 7 7 8 8 8 8 8 8 7 7 7 6 6 6 6 6 6 6 6 6 6 6
7 7 6 4 3 2 2 2 2 2 2 2 3 4 4 4 4 5 6 6 6 8 10 14 15 14 12 10 10 10 10 12 12 9 2 -4 -3 0 4 5 6 7 6 7 8 9 8 8 7 6 5 6 7 8 8 8 7 6 5 5 6 6 6 6 5 5 5 6 6 7 7 6 6 6 6 6 6 6 7 7 7 7 7 7 8 8 8 8 8 8 7 7 7 6 6 6 6 6 6 6 6 6 6
6 5 3 2 1 0 1 1 2 2 2 2 3 3 3 3 3 4 5 5 6 7 10 13 15 14 11 10 10 10 11 13 14 11 1 -8 -6 0 5 7 8 7 5 6 7 8 8 8 8 6 5 5 6 7 8 7 7 6 6 6 6 6 6 6 6 6 6 6 6 7 7 7 7 6 6 6 6 7 7 8 8 8 7 7 7 7 8 8 8 8 8 7 7 7 7 7 6 6 7 6 6 6 6
3 1 0 -1 -1 -0 0 2 2 3 2 2 2 2 3 3 3 3 4 5 5 6 8 12 14 13 11 10 10 11 12 12 14 15 8 -2 -2 2 6 9 9 7 4 4 5 7 9 9 8 6 5 5 5 6 7 7 7 6 6 6 6 6 6 6 6 6 6 6 7 7 7 7 6 6 6 6 6 7 7 8 8 8 7 7 7 7 7 7 7 7 7 8 8 8 8 7 7 7 7 7 7 7 6
1 0 -1 -1 -0 1 1 2 2 2 2 2 2 2 2 2 2 2 3 4 4 4 6 9 11 12 10 10 10 10 11 10 8 6 2 2 3 6 7 10 10 7 3 3 4 6 8 9 8 7 6 5 5 6 7 7 7 7 6 6 6 6 6 6 6 6 6 6 6 6 6 6 6 6 6 6 7 7 7 8 8 8 7 7 7 7 7 7 7 7 7 7 8 8 8 8 8 8 8 8 8 7 7
2 1 1 1 2 2 3 2 2 2 2 2 2 1 1 1 1 1 2 3 3 3 3 5 6 8 9 9 9 9 10 8 6 4 3 6 7 9 9 11 10 7 3 3 4 5 7 8 8 8 7 6 6 6 6 7 7 7 6 6 6 6 6 6 6 6 6 6 6 6 6 6 6 6 6 6 7 7 8 8 8 7 7 7 7 7 6 6 6 7 7 7 7 8 8 8 8 8 9 8 8 8 8
5 4 3 3 3 4 3 2 2 1 2 2 2 2 1 1 1 1 1 2 2 2 2 2 2 3 5 6 8 9 9 9 8 8 9 11 12 10 8 8 7 6 5 4 4 5 6 7 8 8 7 6 6 6 6 7 7 7 7 6 6 6 5 6 6 6 6 6 6 6 6 6 6 6 6 6 7 7 7 8 8 7 7 7 6 6 6 6 6 6 6 6 6 7 7 7 8 8 8 8 8 8 8
6 5 5 5 5 4 3 2 1 1 1 2 2 2 2 1 1 1 1 1 2 2 1 1 0 0 1 2 4 6 8 9 11 13 14 16 15 11 4 4 5 6 6 5 4 4 5 6 7 7 7 6 6 6 6 7 7 7 7 7 6 6 5 5 5 5 6 6 6 6 6 6 6 6 6 6 7 7 7 7 7 7 7 7 6 6 6 6 6 6 6 6 6 6 6 6 6 7 7 7 7 8 8
5 5 5 5 5 4 3 2 1 1 1 2 2 3 2 2 1 1 1 1 1 1 1 1 1 0 -0 -0 1 2 4 6 9 11 14 16 15 10 3 3 6 8 8 6 4 4 5 6 6 6 6 6 6 6 6 7 7 7 7 7 7 6 6 5 5 5 5 5 6 6 5 5 6 6 6 6 6 7 7 7 7 7 7 7 6 6 6 6 5 5 5 5 5 5 5 5 5 5 6 6 6 6 7
4 4 4 3 3 2 1 1 1 1 1 2 2 3 4 3 3 2 1 1 1 1 1 1 1 1 2 1 0 0 1 3 5 7 10 12 12 9 4 5 8 10 10 7 5 4 4 5 6 6 5 5 5 5 5 6 7 7 7 7 8 8 7 6 5 5 5 5 5 5 5 5 5 6 6 6 6 6 7 7 7 7 7 7 6 6 6 6 6 5 5 5 5 5 5 5 5 5 5 5 5 5 5
3 2 2 1 1 1 1 1 1 2 2 2 3 4 5 5 4 3 2 2 1 1 1 1 1 2 3 3 3 1 0 1 2 4 6 9 10 9 7 9 10 11 10 8 6 4 4 4 5 6 5 5 4 4 5 6 6 7 7 7 8 8 8 7 6 5 5 5 5 5 5 5 5 5 6 6 6 6 6 7 7 7 7 7 6 6 6 6 6 5 5 5 5 5 5 5 5 5 4 4 4 5 5
3 2 1 1 1 1 1 2 3 3 3 4 4 4 5 5 4 4 3 2 2 1 1 1 2 3 4 5 5 5 3 1 1 2 3 6 8 9 10 11 12 11 10 9 7 5 3 4 5 5 5 5 4 4 5 6 6 7 7 7 7 8 8 8 7 6 5 5 5 5 5 5 5 5 6 6 6 6 6 6 6 7 7 6 6 6 6 6 5 5 5 5 5 5 5 5 5 5 4 4 4 4 4
3 3 2 2 2 3 3 4 4 4 5 4 4 3 3 3 3 3 3 2 2 1 1 1 2 3 4 6 7 7 6 3 2 1 1 3 5 7 9 11 11 11 10 9 8 6 4 4 4 5 5 5 5 5 6 7 7 7 6 6 7 7 8 9 8 7 6 6 6 6 6 6 6 5 6 6 6 6 6 6 6 6 6 6 6 6 6 6 5 5 5 5 5 5 5 5 5 5 5 5 5 5 4
4 4 5 5 5 4 5 5 5 4 4 3 2 1 1 1 1 2 2 2 2 2 1 1 2 4 5 6 7 7 8 6 4 3 1 2 3 6 8 10 11 11 10 10 9 8 5 4 4 5 5 5 5 5 7 8 8 7 5 5 5 7 9 10 10 9 7 6 6 6 6 6 6 6 6 6 6 6 6 6 6 6 6 6 6 6 6 6 6 5 5 5 5 5 5 5 5 5 5 5 5 5 5
6 5 4 7 8 8 6 5 4 3 2 1 0 -1 -1 -1 -1 -0 1 2 2 2 2 2 3 4 5 5 6 6 7 7 6 4 2 2 3 4 7 9 10 10 9 9 9 8 7 5 4 5 5 5 5 5 7 8 9 8 6 4 4 6 9 11 12 11 9 7 6 6 7 7 7 7 6 6 6 6 6 6 6 6 6 6 6 6 6 6 6 5 5 5 5 5 5 5 5 5 5 5 5 5 5
11 6 2 2 5 8 6 4 2 1 1 1 -0 -1 -1 -1 -1 -1 0 1 2 2 2 3 4 4 5 5 4 5 6 7 7 6 4 3 3 4 6 8 9 10 9 9 9 9 8 6 5 5 5 6 6 6 6 7 8 8 7 5 4 5 7 10 12 12 11 9 7 7 7 7 7 8 8 7 7 6 6 6 6 6 6 6 6 6 6 6 6 5 5 5 4 5 5 5 5 5 5 5 5 5 5
12 11 9 1 1 3 2 1 0 -0 0 0 -0 -0 -0 0 0 0 0 1 1 2 2 3 4 4 5 4 3 3 5 7 8 7 5 4 3 4 5 7 8 9 10 9 10 9 8 7 5 5 5 6 6 7 7 7 7 7 7 6 5 5 6 8 10 11 11 9 8 7 6 6 7 7 8 8 7 7 6 6 6 6 6 6 6 6 6 6 6 5 5 5 4 4 4 4 5 5 5 5 5 5 5
2 8 12 11 8 6 5 2 0 -1 -1 -1 -1 -1 -0 0 1 1 1 1 1 1 2 3 3 4 5 5 3 3 4 6 7 8 7 5 4 4 5 7 8 9 9 10 10 9 9 7 5 4 4 5 6 8 8 7 7 6 6 6 5 5 5 5 6 7 8 7 7 6 6 5 5 5 6 6 7 7 7 6 6 6 6 6 6 6 6 6 6 5 5 5 4 4 4 4 4 5 5 5 5 5 5
-2 0 4 9 11 12 12 12 10 7 3 1 0 0 0 1 1 2 2 2 1 1 1 2 3 4 5 5 4 3 3 5 6 8 8 7 5 5 5 7 8 9 10 10 10 10 9 7 6 5 3 3 5 7 9 9 7 6 6 6 6 6 6 5 4 3 2 2 2 3 3 3 3 3 3 4 5 6 7 7 6 6 6 6 6 6 6 6 6 5 5 5 5 4 4 4 4 4 4 5 5 5 5
3 2 3 4 5 7 11 17 20 19 14 10 7 5 4 3 3 3 3 3 2 2 2 2 3 4 4 5 5 4 3 4 6 8 9 8 6 6 6 7 8 9 10 10 10 9 8 7 6 5 4 2 3 5 7 8 8 7 7 7 7 7 9 7 5 1 -2 -2 -3 -2 -0 1 2 2 1 1 2 4 5 5 6 6 6 6 6 6 6 6 6 6 5 5 5 5 4 4 4 4 4 4 4 4 4
8 8 8 6 6 7 10 14 16 17 20 18 15 12 10 7 5 4 5 5 4 4 3 3 3 3 3 4 4 4 4 5 6 8 9 8 7 6 6 7 8 9 10 10 9 8 7 7 7 7 6 3 2 2 4 5 6 6 7 7 8 9 10 11 7 2 -2 -2 -2 -1 1 2 2 1 1 1 2 2 3 4 5 5 5 5 5 6 6 6 6 6 5 5 5 5 5 4 4 4 4 4 4 4 4
8 9 8 8 9 12 14 9 2 -0 8 13 14 13 13 11 8 6 6 6 5 5 5 4 4 4 4 3 3 4 5 5 6 7 8 9 8 7 6 7 8 9 10 10 9 8 6 6 7 8 8 5 3 2 2 3 3 4 5 7 8 10 12 12 8 3 -0 1 5 8 9 7 5 4 3 3 2 2 2 3 4 5 5 5 5 5 6 6 6 6 5 5 5 5 5 5 4 4 4 4 4 4 4
3 4 4 5 9 15 20 8 -3 -7 -2 3 6 7 7 10 12 12 9 7 5 5 5 5 5 4 4 3 3 4 4 5 6 7 8 8 8 7 6 7 8 10 12 12 10 7 5 5 7 8 9 7 6 4 2 2 2 3 4 6 8 11 13 11 7 3 3 8 14 17 17 13 10 8 7 5 4 3 3 3 4 4 5 5 6 6 6 6 6 6 5 5 5 5 5 5 5 5 4 4 4 4 4
4 3 1 -1 3 9 15 7 3 1 -0 -3 -1 4 10 16 17 16 13 9 7 6 5 5 5 4 4 4 4 4 4 6 7 7 7 7 7 7 6 7 9 11 13 13 10 7 4 5 7 9 10 9 7 6 5 4 3 3 3 5 9 12 14 10 6 4 5 10 14 16 16 14 11 9 10 7 5 5 4 4 4 5 5 5 6 6 6 6 6 6 6 5 5 5 5 5 5 5 5 5 5 5 5
7 7 4 -0 -2 -2 -3 -7 -8 -6 -4 -6 -3 4 14 24 25 21 17 11 8 6 6 6 5 5 5 4 4 4 5 7 8 8 7 7 7 6 6 6 8 11 13 13 10 7 5 6 9 11 12 10 8 7 8 6 4 3 3 6 10 13 13 8 5 3 4 6 8 9 10 13 13 12 13 9 6 6 6 6 6 5 5 5 5 6 6 6 7 7 6 6 5 5 5 5 5 5 5 5 5 5 5
7 7 7 5 2 -1 -5 -11 -13 -13 -9 -6 -1 7 16 29 33 29 19 11 7 6 5 6 6 6 6 5 5 5 7 9 10 9 7 6 6 6 5 6 7 9 12 12 11 8 5 7 10 13 13 10 7 6 7 7 5 3 3 7 11 13 11 6 2 0 1 3 5 6 7 7 7 9 15 15 13 9 4 8 8 7 6 5 5 5 6 6 6 7 7 6 6 6 5 5 5 5 5 5 5 5 5
7 7 7 7 7 5 3 1 -1 -2 -1 2 5 8 11 26 31 25 8 7 5 5 3 4 5 7 7 7 7 8 8 9 9 8 5 5 6 6 5 5 6 8 11 12 11 9 6 8 11 12 11 7 4 3 4 4 3 3 4 8 11 11 7 2 -1 -2 -2 2 5 7 6 4 3 5 10 15 17 15 7 9 10 9 7 5 5 5 5 5 6 6 6 6 6 6 5 5 5 5 5 5 5 5 5
8 8 8 8 8 8 8 8 7 7 7 8 8 7 6 17 24 22 2 1 0 0 -2 1 5 8 8 9 9 9 8 8 7 5 4 4 5 6 6 5 5 7 10 11 11 10 8 9 10 10 8 4 1 -0 -1 -0 1 2 5 9 11 8 2 -1 -2 -3 -2 3 6 7 3 2 2 4 8 13 16 17 15 13 12 11 8 6 5 5 5 5 5 5 6 6 6 6 6 6 6 6 6 6 5 5 5
11 10 10 9 9 9 9 9 9 9 10 10 9 7 4 4 8 11 3 -1 -4 -6 -7 1 7 11 12 12 10 8 7 7 5 3 3 4 6 7 6 5 5 6 9 11 11 10 9 9 9 8 5 2 -0 -3 -5 -3 -1 3 6 10 10 6 -1 -1 -2 -2 -1 5 6 5 1 1 1 3 6 10 14 17 18 16 15 13 11 8 6 5 5 5 5 5 5 5 5 6 6 6 6 6 6 6 5 5 5
12 12 12 11 11 10 10 10 10 10 10 10 10 8 6 -1 -4 -3 2 -1 -4 -7 -7 4 13 18 20 16 11 7 5 6 5 4 2 4 6 7 7 6 5 6 9 11 11 10 9 9 8 7 4 3 1 -2 -5 -2 1 4 7 10 10 7 0 -1 -1 1 3 5 4 2 1 0 0 1 3 8 12 15 17 17 17 15 12 10 7 6 5 5 5 5 5 5 5 5 6 6 6 6 6 5 5 5 5
12 12 12 12 12 12 11 11 11 11 11 10 10 10 8 3 -4 -10 -11 -11 -10 -9 -9 2 15 25 26 18 11 6 3 5 6 6 3 5 6 7 7 6 6 6 8 10 10 10 8 8 8 7 6 4 3 1 0 2 4 6 8 10 10 8 4 1 2 3 5 3 1 0 1 1 -1 -1 1 5 10 14 16 18 18 17 14 11 9 7 5 5 5 5 5 5 5 5 5 6 6 6 5 5 5 5 5
10 10 11 11 12 12 12 12 12 12 11 11 10 10 9 7 3 -5 -15 -20 -19 -16 -13 -2 14 26 26 17 9 3 3 6 8 8 4 6 7 7 7 6 6 6 7 8 9 9 8 7 7 8 8 6 5 5 4 4 5 7 9 10 10 9 7 5 3 3 1 -2 -4 -2 2 2 -1 -3 -2 3 8 12 15 17 18 18 16 13 10 8 6 5 5 5 5 5 5 5 6 6 6 6 5 5 5 5 5
8 8 8 9 9 10 10 10 11 11 11 11 11 10 10 9 8 4 -2 -10 -13 -13 -9 0 11 19 19 10 3 -1 3 8 10 9 4 6 7 7 7 7 7 6 6 7 7 8 7 6 6 7 9 7 7 6 4 5 6 8 9 10 10 9 7 5 3 0 -3 -6 -6 -4 2 3 -1 -5 -6 -0 6 10 14 17 18 19 17 14 11 8 6 5 5 5 5 5 5 5 6 6 6 6 5 5 5 5 5
6 6 6 7 7 8 8 8 9 9 10 10 11 11 10 10 9 9 7 4 1 -1 -0 4 8 11 10 3 -3 -5 1 10 14 12 5 6 7 7 6 6 7 7 6 6 6 7 7 6 6 6 8 8 7 6 5 7 8 9 10 10 10 10 8 4 1 -2 -5 -6 -4 -1 2 2 -1 -5 -8 -2 4 9 13 16 18 19 18 14 11 8 6 5 4 4 5 5 5 5 5 5 6 5 5 5 5 5 5
6 6 6 6 6 6 7 7 7 7 8 9 10 10 10 10 9 9 9 9 8 7 6 7 9 9 6 1 -3 -4 1 15 21 19 8 6 5 5 5 6 7 7 7 6 7 7 8 7 7 7 7 7 7 7 8 8 9 9 10 10 11 10 8 4 1 -2 -6 -4 0 5 5 3 -1 -4 -6 -2 3 8 12 15 18 19 19 15 11 8 5 4 4 4 4 5 5 5 5 5 5 5 5 5 5 5 5
8 8 8 7 7 7 6 6 6 6 6 7 8 9 9 9 9 9 9 9 9 10 9 9 9 8 6 4 3 4 6 24 30 25 10 6 4 3 4 5 7 7 7 7 8 8 8 8 8 7 7 7 8 8 9 8 8 8 9 10 11 11 9 5 2 -2 -6 -2 4 10 9 4 1 -1 -2 0 5 9 12 14 16 18 19 15 12 8 5 4 3 3 4 4 5 5 5 5 5 5 5 5 5 5 5
10 10 9 9 9 9 8 8 7 6 6 6 6 7 8 9 9 9 9 9 9 9 10 9 9 8 6 7 8 10 9 31 36 28 11 5 2 2 3 5 7 7 7 8 8 8 7 7 6 6 6 7 8 9 8 6 5 6 8 10 11 11 10 6 3 -0 -5 -1 6 11 10 6 3 2 0 2 6 10 13 13 15 17 18 15 12 8 5 4 3 3 3 4 5 5 5 5 5 5 5 5 5 5 5
10 10 11 11 11 11 11 11 10 9 7 7 6 5 6 7 8 8 9 9 9 8 9 9 9 8 5 5 6 7 6 23 27 22 12 7 2 -1 0 5 7 7 6 8 8 7 6 5 4 4 4 6 8 8 7 5 4 5 7 9 10 11 10 7 4 1 -2 1 6 9 8 6 5 4 1 1 5 10 12 13 14 16 17 15 12 8 5 4 3 3 3 4 4 5 5 5 5 5 5 5 5 5 5
11 11 11 12 12 12 13 13 13 12 11 9 8 7 6 6 6 7 7 8 9 9 8 9 10 10 7 1 -0 2 5 12 9 5 4 7 1 -5 -6 6 8 7 7 7 7 6 4 3 2 3 4 5 6 6 6 5 5 7 8 8 9 10 10 8 6 3 1 2 4 5 5 6 6 4 0 0 4 9 11 12 13 14 16 15 12 9 6 4 3 3 3 4 4 4 5 5 5 5 5 5 5 5 5
12 12 12 12 12 12 13 13 14 14 14 13 11 10 8 7 6 6 6 6 7 8 9 8 9 10 9 1 -4 -3 4 7 2 -4 -4 -0 -1 -4 -3 7 9 8 9 8 7 6 3 1 1 2 3 4 5 5 5 6 8 10 9 8 8 9 10 9 8 5 3 1 1 3 7 9 8 3 -2 -0 4 8 10 10 12 13 15 14 12 9 7 5 4 3 3 4 4 4 4 5 5 5 5 5 5 5 5
12 12 12 12 12 12 12 12 13 14 15 15 15 14 12 10 8 7 5 5 6 8 9 9 9 10 10 4 -3 -6 -1 5 5 2 -1 1 2 6 12 11 10 9 8 9 8 5 2 1 1 2 3 4 4 4 4 7 10 12 11 10 9 10 11 10 8 5 1 -3 -0 6 13 12 6 -0 -4 1 5 9 10 9 11 12 14 14 12 10 8 6 4 4 4 4 4 4 4 5 5 5 5 5 5 5 5
10 11 11 11 11 11 11 11 11 12 13 14 15 16 15 14 12 10 7 6 6 8 9 9 9 10 11 8 2 -4 -5 1 6 10 11 16 15 13 9 10 10 10 6 7 7 5 2 0 1 2 4 4 3 3 5 8 11 12 13 12 11 11 12 12 9 5 -2 -6 -1 7 12 7 1 -3 -3 3 6 8 8 8 9 11 13 13 12 10 9 7 5 5 4 4 4 4 5 5 5 5 5 5 5 5 5
10 10 10 10 10 10 10 10 10 10 10 11 13 14 16 16 15 14 11 8 6 6 8 10 10 10 10 11 7 2 -5 -3 3 10 16 28 30 23 4 6 7 7 6 6 6 5 2 1 2 3 5 4 4 4 6 9 11 13 14 13 12 12 13 13 9 3 -5 -7 -2 4 4 -0 -3 -2 2 6 8 8 8 8 9 10 12 12 12 11 9 8 6 6 5 5 5 5 5 5 5 5 5 5 5 5 5
12 11 11 11 10 10 10 10 10 10 10 10 10 12 13 15 16 16 16 13 9 6 4 8 9 10 10 12 11 8 1 -3 -1 5 15 30 36 29 8 -1 0 3 1 4 6 5 3 3 4 4 3 3 5 7 8 9 11 12 12 11 10 10 13 12 6 -1 -8 -5 -1 1 -1 -1 0 3 6 7 9 10 10 10 10 11 12 12 11 10 9 8 7 7 6 6 5 5 5 5 5 5 5 5 5 5 5
12 12 12 12 12 12 11 11 11 10 10 10 11 11 11 13 15 16 18 17 15 11 6 5 6 8 10 12 12 11 7 2 1 3 9 21 26 23 10 3 2 1 -3 1 2 3 6 4 4 4 2 1 5 8 10 10 11 12 11 11 10 9 11 7 1 -4 -4 0 2 2 3 4 6 7 8 8 10 12 13 13 13 12 12 11 11 10 9 9 8 7 7 6 5 5 5 5 5 5 5 5 5 5 5
12 12 12 12 13 13 13 13 12 12 11 11 12 12 12 12 13 15 17 18 18 17 13 10 8 9 10 11 13 13 12 7 4 2 3 12 14 13 10 6 2 1 4 8 5 0 0 1 1 1 0 2 5 8 10 10 11 11 12 12 11 10 8 4 2 2 6 7 7 7 7 7 8 9 10 11 12 14 15 16 15 14 12 11 10 10 9 9 8 8 7 6 5 5 5 5 5 5 5 5 5 5 5
12 12 12 12 12 13 13 14 14 14 13 12 12 13 13 13 13 14 15 18 19 20 18 12 10 10 11 11 12 13 14 11 8 4 2 3 4 5 6 5 5 8 14 18 12 3 -2 1 2 1 1 4 8 10 10 10 11 12 14 15 14 13 11 11 13 14 13 12 11 9 8 8 8 10 12 13 13 14 15 17 16 15 12 11 10 9 9 8 8 7 7 6 5 5 5 5 5 5 5 5 5 5 5
12 12 12 12 12 12 13 13 14 14 14 14 13 13 13 14 15 15 15 17 19 21 21 16 10 6 7 10 12 14 15 14 10 6 2 -2 -4 -2 7 10 12 12 11 11 8 5 3 2 2 3 4 7 10 12 12 12 12 12 13 14 13 13 13 15 16 16 15 13 10 8 7 7 8 11 14 14 13 12 13 17 17 14 12 10 9 9 9 8 7 7 6 5 5 5 5 5 5 5 5 5 5 5 5
14 13 14 13 13 13 13 13 14 14 14 14 14 14 13 14 15 16 17 17 18 20 23 21 15 11 11 16 19 20 19 18 14 8 2 -3 -8 -9 -4 11 22 25 17 6 2 1 2 2 3 3 3 9 13 14 13 12 11 10 8 9 9 9 10 12 13 13 12 10 8 7 6 7 9 13 17 16 10 7 11 16 16 14 11 10 9 9 8 7 6 6 6 5 5 4 5 5 5 5 5 5 5 5 6
15 14 14 14 14 14 14 13 14 14 14 14 14 14 14 13 14 16 18 18 19 20 23 23 18 14 15 28 31 29 25 23 19 13 5 -3 -9 -12 -10 0 18 33 36 20 10 4 1 3 4 4 4 10 14 14 10 7 6 5 4 3 4 4 6 7 9 10 10 8 8 7 7 8 12 15 17 13 8 6 13 17 16 13 10 9 9 9 8 7 6 5 5 5 5 4 5 5 5 5 5 5 5 6 6
15 15 14 15 14 14 14 14 14 14 14 14 14 14 15 14 13 14 16 18 19 21 23 25 16 5 -1 15 24 28 29 27 23 19 12 1 -7 -11 -10 -3 12 27 35 23 13 7 6 7 5 4 6 10 11 10 8 4 1 -1 -0 0 1 1 2 4 6 8 9 9 8 8 8 10 13 16 16 14 13 14 19 18 15 11 9 9 9 9 8 7 5 5 5 5 5 5 5 5 5 5 5 5 6 6 7
15 15 15 15 15 15 14 14 14 14 14 14 14 14 15 15 14 13 14 16 18 20 23 27 19 3 -16 -4 8 18 24 25 24 22 17 10 1 -5 -9 -3 11 23 26 15 10 9 10 12 9 5 6 8 7 6 5 3 1 -1 -2 -2 -2 -1 0 2 4 6 8 9 9 9 9 12 14 16 18 19 20 21 21 16 12 9 8 8 9 9 8 7 6 5 5 5 5 5 5 5 5 5 5 6 6 7 7
17 17 17 17 17 17 16 15 14 14 15 14 14 14 15 15 14 14 13 15 16 19 22 27 22 9 -13 -16 -7 7 19 23 24 23 19 15 9 3 -4 0 13 23 21 9 8 12 17 15 11 7 4 6 4 2 1 1 0 0 0 -1 -2 -2 -1 1 2 5 7 8 9 9 10 12 14 16 18 20 21 20 17 13 10 8 8 8 9 9 8 7 6 5 5 5 5 5 5 5 5 5 6 6 7 7 8
Height
3178 3178 3177 3177 3177 3177 3177 3176 3176 3176 3175 3175 3175 3174 3174 3173 3172 3172 3171 3171 3171 3170 3170 3170 3169 3169 3168 3168 3168 3169 3169 3169 3169 3169 3169 3169 3169 3169 3169 3168 3168 3168 3167 3167 3167 3166 3166 3166 3166 3166 3166 3166 3166 3166 3166 3166 3166 3166 3166 3166 3166 3165 3165 3165 3166 3166 3166 3166 3165 3165 3165 3164 3164 3164 3164 3164 3164 3164 3163 3163 3163 3163 3163 3163 3163 3163 3163 3163 3163 3163 3163 3163 3163 3163 3163 3163 3164 3164 3164 3164 3164 3164 3164
3177 3177 3177 3176 3176 3176 3176 3176 3175 3175 3175 3174 3174 3174 3173 3173 3172 3171 3171 3171 3170 3169 3169 3169 3168 3168 3168 3167 3167 3167 3167 3168 3169 3169 3169 3169 3169 3169 3168 3168 3168 3167 3167 3166 3166 3166 3166 3166 3166 3166 3166 3166 3166 3166 3166 3165 3165 3165 3165 3165 3165 3165 3165 3165 3165 3165 3165 3165 3165 3165 3164 3164 3164 3164 3164 3163 3163 3163 3163 3163 3163 3163 3163 3162 3162 3162 3162 3163 3163 3163 3163 3163 3163 3163 3163 3163 3163 3163 3163 3164 3164 3164 3164
3176 3176 3176 3176 3175 3175 3175 3175 3174 3174 3174 3174 3173 3173 3172 3172 3171 3171 3170 3170 3170 3169 3168 3168 3168 3167 3167 3166 3166 3166 3166 3167 3167 3168 3168 3168 3169 3168 3168 3168 3167 3167 3166 3166 3166 3165 3165 3165 3165 3165 3165 3165 3165 3165 3165 3165 3165 3165 3165 3165 3165 3165 3165 3165 3164 3164 3165 3164 3164 3164 3164 3164 3164 3163 3163 3163 3163 3163 3163 3162 3162 3162 3162 3162 3162 3162 3162 3162 3162 3162 3162 3162 3162 3162 3162 3163 3163 3163 3163 3163 3163 3163 3163
3175 3175 3175 3175 3174 3174 3174 3174 3174 3174 3173 3173 3172 3172 3172 3171 3171 3170 3170 3169 3169 3169 3168 3167 3167 3166 3166 3166 3165 3165 3165 3165 3166 3167 3167 3168 3168 3168 3167 3167 3167 3167 3166 3166 3165 3165 3165 3164 3164 3164 3164 3164 3164 3164 3164 3164 3164 3164 3164 3164 3164 3164 3164 3164 3164 3164 3164 3164 3164 3164 3164 3164 3163 3163 3163 3162 3162 3162 3162 3162 3162 3162 3161 3161 3161 3161 3161 3161 3161 3162 3162 3162 3162 3162 3162 3162 3162 3162 3162 3162 3162 3163 3163
3174 3174 3174 3174 3174 3174 3173 3173 3173 3173 3172 3172 3171 3171 3171 3170 3170 3169 3169 3169 3168 3168 3167 3167 3166 3166 3165 3165 3165 3164 3164 3164 3165 3166 3166 3167 3167 3167 3167 3167 3167 3166 3166 3166 3165 3165 3164 3164 3164 3164 3164 3164 3164 3164 3164 3164 3164 3164 3164 3164 3164 3164 3164 3164 3164 3164 3164 3164 3164 3164 3163 3163 3163 3162 3162 3162 3162 3162 3161 3161 3161 3161 3161 3161 3161 3161 3161 3161 3161 3161 3161 3161 3161 3161 3161 3162 3162 3162 3162 3162 3162 3162 3162
3173 3173 3173 3173 3173 3172 3172 3172 3172 3172 3171 3171 3170 3170 3170 3169 3169 3169 3168 3168 3168 3167 3167 3166 3165 3165 3164 3164 3164 3164 3164 3163 3164 3164 3165 3165 3166 3166 3166 3166 3166 3166 3166 3165 3165 3164 3164 3164 3163 3163 3163 3163 3163 3163 3164 3164 3164 3164 3164 3164 3164 3164 3164 3164 3164 3164 3163 3163 3163 3163 3163 3163 3162 3162 3162 3161 3161 3161 3161 3161 3161 3161 3160 3160 3160 3160 3160 3160 3160 3160 3160 3161 3161 3161 3161 3161 3161 3161 3161 3161 3161 3161 3161
3172 3172 3172 3171 3171 3171 3171 3171 3171 3170 3170 3170 3169 3169 3169 3169 3169 3168 3167 3167 3167 3166 3166 3165 3165 3164 3164 3163 3163 3163 3163 3163 3163 3163 3163 3164 3164 3165 3166 3166 3166 3166 3165 3165 3164 3164 3164 3163 3163 3163 3163 3163 3163 3163 3163 3163 3163 3163 3163 3163 3163 3163 3163 3163 3163 3163 3163 3163 3163 3163 3162 3162 3162 3161 3161 3161 3161 3161 3160 3160 3160 3160 3160 3160 3160 3160 3160 3160 3160 3160 3160 3160 3160 3160 3160 3160 3160 3160 3160 3160 3160 3160 3160
3171 3170 3170 3170 3170 3170 3170 3170 3170 3169 3169 3169 3169 3168 3168 3168 3168 3167 3167 3166 3166 3165 3165 3165 3164 3164 3163 3162 3162 3161 3161 3161 3161 3161 3162 3162 3163 3164 3165 3165 3165 3165 3165 3164 3164 3164 3163 3163 3163 3162 3162 3162 3162 3162 3162 3163 3163 3163 3163 3163 3163 3163 3163 3162 3162 3162 3162 3162 3162 3162 3162 3161 3161 3161 3160 3160 3160 3160 3160 3160 3160 3160 3159 3159 3159 3159 3159 3159 3159 3159 3159 3159 3159 3160 3160 3160 3160 3160 3160 3160 3160 3160 3160
3169 3169 3169 3169 3169 3169 3169 3169 3169 3169 3168 3168 3167 3167 3167 3167 3167 3166 3166 3165 3165 3164 3164 3164 3163 3163 3162 3161 3160 3160 3160 3160 3160 3160 3160 3161 3162 3163 3164 3164 3164 3165 3164 3164 3164 3163 3163 3162 3162 3162 3161 3161 3161 3162 3162 3162 3162 3162 3162 3162 3162 3162 3162 3162 3162 3162 3162 3161 3161 3161 3161 3161 3160 3160 3160 3160 3160 3160 3159 3159 3159 3159 3159 3159 3159 3159 3159 3159 3159 3159 3159 3159 3159 3159 3159 3159 3159 3159 3159 3159 3159 3159 3159
3169 3168 3168 3168 3168 3168 3168 3168 3168 3167 3167 3167 3166 3166 3166 3166 3165 3165 3165 3164 3164 3164 3163 3163 3163 3162 3161 3160 3160 3159 3159 3159 3159 3159 3160 3160 3161 3162 3163 3163 3164 3164 3164 3163 3163 3163 3162 3162 3161 3161 3161 3161 3161 3161 3161 3161 3161 3161 3161 3161 3161 3161 3161 3161 3161 3161 3161 3161 3160 3160 3160 3160 3160 3159 3159 3159 3159 3159 3159 3159 3159 3159 3159 3159 3159 3159 3159 3159 3158 3158 3158 3159 3159 3159 3159 3159 3159 3159 3159 3159 3159 3159 3159
3167 3167 3167 3167 3167 3167 3167 3167 3166 3166 3166 3165 3165 3165 3165 3164 3164 3164 3164 3163 3163 3163 3163 3162 3162 3161 3160 3160 3159 3159 3158 3158 3158 3158 3159 3160 3160 3161 3162 3163 3163 3163 3163 3162 3162 3162 3162 3161 3161 3160 3160 3160 3160 3160 3160 3160 3160 3160 3160 3160 3160 3160 3160 3160 3160 3160 3160 3160 3159 3159 3159 3159 3159 3159 3159 3159 3159 3159 3159 3159 3158 3158 3158 3158 3158 3158 3158 3158 3158 3158 3158 3158 3158 3158 3158 3158 3158 3158 3158 3158 3158 3158 3158
3166 3166 3165 3165 3165 3165 3165 3165 3165 3165 3164 3164 3164 3164 3164 3163 3163 3163 3163 3162 3162 3162 3162 3161 3161 3160 3160 3159 3159 3158 3158 3157 3157 3158 3159 3159 3159 3160 3161 3162 3162 3162 3162 3162 3161 3161 3161 3160 3160 3160 3159 3159 3159 3159 3159 3159 3159 3159 3159 3159 3159 3159 3159 3159 3159 3159 3159 3159 3159 3159 3159 3159 3159 3158 3158 3158 3158 3158 3158 3158 3158 3158 3158 3157 3157 3157 3157 3157 3157 3157 3157 3157 3157 3157 3157 3158 3158 3158 3158 3158 3158 3158 3158
3164 3164 3164 3164 3164 3164 3164 3164 3164 3164 3163 3163 3163 3163 3162 3162 3162 3162 3161 3161 3161 3160 3161 3161 3160 3160 3159 3159 3158 3158 3157 3157 3157 3157 3158 3158 3158 3159 3160 3160 3161 3161 3161 3161 3160 3160 3160 3160 3159 3159 3159 3159 3159 3159 3159 3159 3159 3159 3159 3159 3159 3159 3159 3159 3159 3158 3158 3158 3158 3158 3158 3158 3158 3158 3158 3157 3157 3157 3157 3157 3157 3157 3157 3157 3157 3157 3157 3157 3157 3157 3157 3157 3157 3157 3157 3157 3157 3157 3157 3157 3157 3157 3157
3163 3163 3163 3163 3163 3163 3163 3163 3163 3162 3162 3162 3162 3161 3161 3161 3161 3160 3160 3160 3159 3159 3159 3159 3160 3159 3159 3158 3158 3157 3157 3156 3156 3156 3156 3156 3156 3157 3159 3159 3159 3159 3160 3160 3160 3159 3159 3159 3159 3159 3158 3158 3158 3158 3158 3158 3158 3158 3158 3158 3158 3158 3158 3158 3158 3157 3157 3157 3157 3157 3157 3157 3157 3157 3157 3157 3157 3157 3157 3156 3156 3156 3156 3156 3156 3156 3156 3156 3156 3156 3156 3156 3156 3156 3156 3156 3156 3156 3157 3157 3157 3156 3156
3161 3161 3161 3161 3161 3161 3161 3161 3161 3161 3161 3161 3160 3160 3160 3160 3159 3159 3159 3159 3159 3158 3158 3158 3159 3159 3158 3158 3157 3157 3156 3156 3156 3156 3155 3155 3155 3156 3157 3157 3158 3158 3159 3159 3159 3159 3159 3158 3158 3158 3157 3157 3157 3157 3157 3157 3157 3157 3157 3157 3157 3157 3157 3157 3157 3157 3156 3156 3156 3156 3156 3156 3156 3156 3156 3156 3156 3156 3156 3156 3156 3155 3155 3155 3155 3155 3155 3155 3155 3155 3155 3155 3155 3155 3155 3155 3155 3156 3156 3156 3156 3156 3156
3160 3160 3160 3159 3159 3159 3159 3159 3159 3159 3159 3159 3159 3159 3159 3159 3158 3158 3158 3158 3157 3157 3157 3157 3157 3157 3158 3157 3156 3156 3156 3155 3155 3155 3155 3154 3154 3154 3155 3155 3156 3157 3157 3158 3158 3158 3158 3158 3157 3157 3157 3156 3156 3156 3156 3156 3156 3156 3156 3156 3156 3156 3156 3156 3155 3155 3155 3155 3155 3155 3155 3155 3155 3155 3155 3155 3155 3155 3155 3155 3155 3155 3155 3154 3154 3154 3154 3154 3154 3154 3154 3154 3154 3154 3154 3154 3154 3155 3155 3155 3155 3155 3155
3158 3158 3158 3158 3158 3158 3158 3158 3158 3158 3158 3158 3158 3158 3158 3157 3157 3157 3157 3156 3156 3155 3155 3155 3155 3155 3156 3156 3155 3155 3155 3155 3154 3154 3154 3153 3153 3152 3153 3154 3154 3155 3156 3156 3157 3157 3157 3157 3156 3156 3156 3155 3155 3155 3155 3155 3155 3155 3155 3155 3155 3155 3155 3154 3154 3154 3154 3154 3154 3154 3154 3154 3154 3154 3154 3154 3154 3154 3154 3154 3154 3154 3154 3154 3154 3154 3154 3154 3154 3154 3154 3154 3154 3154 3154 3154 3154 3154 3154 3154 3154 3154 3154
3156 3156 3156 3156 3156 3156 3156 3156 3156 3156 3156 3156 3156 3156 3156 3156 3156 3156 3155 3155 3155 3154 3154 3153 3153 3153 3154 3154 3154 3154 3153 3153 3152 3152 3151 3150 3150 3151 3152 3153 3153 3154 3154 3155 3155 3155 3156 3155 3155 3155 3155 3154 3154 3154 3154 3154 3154 3154 3154 3154 3154 3154 3154 3154 3154 3154 3154 3154 3154 3154 3154 3154 3154 3154 3154 3154 3154 3154 3154 3153 3153 3153 3153 3153 3153 3153 3153 3153 3153 3153 3153 3153 3153 3153 3153 3153 3153 3153 3153 3153 3153 3154 3154
3154 3154 3154 3154 3154 3154 3154 3154 3154 3154 3154 3154 3155 3155 3154 3154 3154 3154 3154 3154 3154 3153 3153 3152 3152 3152 3152 3152 3152 3152 3152 3151 3150 3150 3149 3149 3149 3150 3151 3151 3152 3152 3153 3153 3154 3154 3154 3154 3154 3154 3154 3154 3154 3153 3153 3153 3153 3153 3153 3153 3153 3153 3153 3153 3153 3153 3153 3153 3153 3153 3153 3153 3153 3153 3153 3153 3153 3153 3153 3152 3152 3152 3152 3152 3152 3152 3152 3152 3152 3152 3152 3152 3152 3152 3152 3152 3152 3152 3152 3152 3152 3153 3153
3152 3152 3152 3152 3152 3152 3152 3152 3152 3152 3153 3153 3153 3153 3153 3153 3153 3153 3153 3152 3152 3152 3151 3151 3150 3150 3150 3150 3151 3151 3151 3150 3149 3149 3149 3149 3149 3149 3149 3149 3150 3151 3151 3152 3152 3153 3153 3153 3153 3153 3153 3153 3152 3152 3152 3152 3152 3152 3152 3152 3152 3152 3152 3152 3152 3152 3152 3152 3152 3152 3152 3152 3152 3152 3152 3152 3152 3152 3152 3152 3151 3151 3151 3151 3151 3151 3151 3151 3151 3151 3151 3151 3151 3151 3151 3151 3151 3151 3151 3151 3152 3152 3152
3149 3149 3150 3150 3150 3150 3150 3150 3150 3150 3150 3151 3151 3151 3151 3151 3151 3151 3151 3151 3151 3151 3150 3150 3149 3149 3149 3149 3149 3149 3149 3149 3149 3148 3148 3148 3148 3147 3147 3148 3148 3149 3149 3150 3150 3151 3151 3152 3152 3152 3152 3151 3151 3151 3151 3151 3151 3151 3151 3151 3151 3151 3151 3151 3151 3151 3151 3151 3151 3151 3151 3151 3151 3151 3151 3151 3151 3151 3151 3151 3151 3151 3150 3150 3150 3150 3150 3150 3150 3150 3150 3150 3150 3151 3151 3151 3151 3151 3151 3151 3151 3151 3151
3147 3148 3148 3148 3148 3148 3148 3148 3148 3148 3149 3149 3149 3149 3149 3149 3149 3149 3149 3149 3149 3149 3149 3149 3148 3148 3147 3147 3147 3147 3147 3148 3147 3147 3147 3146 3146 3146 3146 3146 3147 3147 3148 3148 3149 3149 3150 3150 3150 3150 3150 3150 3150 3150 3150 3150 3150 3150 3150 3150 3150 3150 3150 3150 3150 3150 3150 3150 3150 3150 3150 3150 3150 3149 3149 3149 3149 3149 3150 3150 3150 3150 3150 3150 3149 3149 3150 3150 3150 3150 3150 3150 3150 3150 3150 3150 3150 3150 3150 3150 3150 3150 3150
3145 3146 3146 3146 3145 3146 3146 3146 3146 3146 3146 3146 3147 3147 3147 3147 3147 3147 3147 3147 3147 3147 3147 3147 3147 3147 3146 3146 3146 3145 3146 3146 3146 3146 3145 3145 3144 3144 3144 3144 3145 3145 3146 3146 3147 3148 3148 3149 3149 3149 3149 3149 3149 3149 3149 3149 3149 3149 3149 3149 3149 3149 3149 3149 3149 3149 3149 3149 3149 3149 3149 3149 3149 3149 3149 3149 3149 3149 3149 3149 3149 3149 3149 3149 3149 3149 3149 3149 3149 3149 3149 3149 3149 3149 3149 3149 3149 3149 3149 3149 3149 3149 3149
3143 3143 3144 3144 3144 3144 3144 3144 3144 3144 3144 3144 3144 3144 3144 3145 3145 3145 3145 3145 3145 3145 3145 3145 3146 3146 3146 3145 3145 3144 3144 3144 3144 3144 3144 3144 3143 3143 3143 3143 3143 3144 3144 3145 3145 3146 3146 3147 3147 3148 3148 3148 3148 3147 3147 3147 3147 3147 3147 3148 3148 3148 3148 3148 3148 3148 3148 3148 3148 3148 3148 3148 3148 3148 3148 3148 3148 3148 3148 3148 3148 3148 3148 3148 3148 3148 3148 3148 3148 3148 3148 3148 3148 3148 3148 3148 3148 3148 3148 3148 3148 3148 3148
3142 3141 3141 3142 3142 3142 3142 3141 3141 3141 3141 3142 3142 3142 3142 3142 3143 3143 3143 3143 3143 3143 3143 3143 3144 3144 3144 3144 3144 3144 3143 3143 3143 3143 3143 3143 3142 3142 3141 3141 3141 3142 3143 3143 3144 3144 3145 3145 3146 3146 3146 3146 3146 3146 3146 3146 3146 3146 3146 3146 3146 3146 3146 3146 3147 3147 3147 3147 3147 3147 3147 3147 3147 3147 3147 3147 3147 3147 3147 3147 3147 3147 3147 3147 3147 3147 3147 3147 3147 3147 3147 3147 3147 3146 3146 3146 3146 3147 3147 3147 3147 3147 3147
3141 3140 3139 3139 3140 3140 3140 3139 3139 3139 3139 3139 3139 3139 3139 3140 3140 3140 3140 3140 3140 3140 3140 3141 3141 3142 3142 3143 3143 3143 3142 3142 3142 3142 3141 3141 3141 3140 3140 3140 3140 3140 3141 3141 3142 3142 3143 3144 3144 3145 3145 3145 3145 3145 3144 3144 3144 3144 3144 3144 3145 3145 3145 3145 3145 3145 3145 3145 3146 3146 3146 3146 3146 3146 3146 3146 3145 3145 3146 3146 3146 3146 3146 3146 3146 3146 3146 3146 3146 3146 3146 3146 3146 3145 3145 3145 3145 3145 3146 3146 3146 3146 3146
3139 3138 3137 3138 3138 3138 3138 3138 3137 3137 3137 3137 3137 3137 3137 3137 3137 3138 3138 3138 3138 3138 3138 3139 3139 3139 3140 3140 3141 3141 3141 3141 3140 3140 3140 3140 3139 3139 3139 3138 3138 3138 3139 3139 3140 3141 3141 3142 3143 3143 3143 3143 3143 3143 3143 3143 3143 3143 3143 3143 3143 3143 3143 3144 3144 3144 3144 3144 3144 3144 3145 3145 3145 3145 3145 3145 3144 3144 3144 3145 3145 3145 3145 3145 3145 3145 3145 3145 3145 3145 3145 3145 3145 3144 3144 3144 3144 3144 3144 3145 3145 3145 3145
3135 3136 3136 3135 3135 3136 3136 3135 3135 3135 3135 3135 3135 3135 3135 3134 3134 3135 3135 3135 3135 3136 3136 3136 3136 3137 3137 3138 3139 3139 3139 3139 3139 3139 3139 3138 3138 3138 3137 3137 3137 3137 3137 3138 3138 3139 3139 3140 3141 3141 3141 3142 3142 3142 3142 3142 3142 3141 3141 3141 3142 3142 3142 3142 3142 3143 3143 3143 3143 3144 3144 3144 3144 3144 3144 3144 3144 3144 3144 3144 3144 3144 3144 3144 3144 3144 3144 3144 3144 3144 3144 3144 3144 3144 3143 3143 3143 3143 3144 3144 3144 3144 3144
3133 3133 3134 3133 3133 3133 3134 3134 3134 3134 3134 3134 3133 3133 3133 3133 3132 3132 3132 3133 3133 3133 3133 3134 3134 3134 3135 3135 3136 3137 3137 3137 3137 3137 3137 3137 3136 3136 3136 3135 3135 3135 3135 3136 3136 3137 3138 3138 3139 3139 3139 3140 3140 3140 3140 3140 3140 3140 3139 3140 3140 3140 3140 3140 3141 3141 3142 3142 3142 3142 3143 3143 3143 3142 3142 3142 3143 3143 3143 3142 3143 3143 3143 3143 3143 3143 3143 3143 3143 3143 3143 3143 3142 3142 3142 3142 3142 3142 3142 3142 3142 3143 3143
3131 3132 3132 3131 3130 3131 3132 3133 3133 3133 3132 3132 3131 3131 3131 3130 3130 3129 3129 3130 3130 3131 3131 3131 3132 3132 3133 3133 3134 3134 3135 3135 3135 3135 3135 3135 3135 3134 3134 3134 3134 3134 3134 3134 3134 3135 3136 3136 3136 3137 3137 3138 3138 3139 3139 3139 3139 3138 3138 3138 3138 3138 3139 3139 3139 3140 3140 3140 3141 3141 3141 3141 3141 3141 3141 3141 3141 3141 3141 3141 3141 3141 3141 3141 3142 3141 3141 3141 3141 3141 3141 3141 3141 3141 3141 3141 3141 3141 3141 3141 3141 3141 3141
3129 3130 3130 3129 3129 3129 3130 3130 3130 3130 3130 3129 3129 3129 3129 3129 3128 3127 3127 3127 3128 3128 3129 3129 3129 3130 3130 3130 3131 3132 3132 3133 3133 3133 3133 3133 3133 3133 3133 3133 3133 3132 3132 3132 3133 3133 3134 3134 3134 3135 3135 3136 3136 3137 3137 3137 3137 3137 3137 3137 3137 3137 3137 3137 3138 3138 3139 3139 3139 3139 3139 3139 3139 3139 3139 3139 3139 3140 3140 3140 3140 3140 3140 3140 3140 3140 3140 3140 3140 3140 3140 3140 3140 3140 3140 3140 3140 3140 3140 3140 3140 3140 3140
3126 3126 3126 3127 3127 3127 3128 3128 3128 3127 3127 3127 3127 3127 3127 3127 3126 3125 3124 3124 3125 3126 3126 3127 3127 3128 3128 3128 3129 3129 3130 3130 3130 3130 3130 3131 3131 3131 3131 3131 3131 3131 3131 3131 3131 3131 3131 3132 3132 3133 3133 3134 3134 3135 3135 3135 3135 3135 3135 3135 3135 3135 3135 3136 3137 3137 3137 3137 3138 3138 3138 3138 3138 3138 3138 3138 3138 3138 3138 3139 3139 3139 3139 3139 3139 3139 3139 3139 3139 3139 3139 3139 3139 3139 3139 3139 3139 3139 3139 3139 3139 3139 3139
3123 3123 3124 3124 3124 3124 3125 3125 3125 3125 3124 3124 3124 3124 3124 3124 3124 3123 3122 3121 3122 3123 3124 3124 3124 3125 3125 3126 3126 3127 3127 3127 3128 3128 3128 3129 3129 3129 3129 3129 3129 3129 3129 3129 3129 3129 3129 3130 3130 3131 3131 3132 3132 3133 3133 3134 3134 3134 3134 3134 3134 3134 3134 3134 3135 3135 3135 3136 3136 3136 3136 3137 3137 3137 3138 3138 3138 3137 3137 3137 3137 3137 3138 3138 3138 3138 3138 3138 3138 3138 3138 3138 3138 3138 3138 3138 3138 3138 3138 3138 3138 3138 3138
3120 3120 3120 3121 3121 3121 3122 3122 3121 3122 3122 3122 3122 3122 3122 3123 3123 3122 3121 3119 3119 3120 3121 3121 3122 3122 3123 3123 3124 3124 3124 3125 3125 3125 3125 3126 3127 3127 3127 3127 3127 3127 3127 3127 3127 3127 3127 3128 3128 3129 3129 3130 3130 3131 3131 3132 3132 3132 3132 3132 3132 3132 3133 3133 3134 3134 3134 3134 3134 3134 3135 3135 3135 3135 3135 3136 3137 3137 3136 3135 3135 3135 3136 3136 3136 3136 3136 3137 3137 3137 3136 3137 3137 3137 3136 3137 3137 3137 3137 3137 3137 3137 3137
3117 3117 3117 3117 3118 3119 3119 3119 3119 3119 3120 3120 3120 3120 3119 3120 3121 3122 3120 3118 3117 3118 3118 3118 3119 3119 3119 3120 3121 3121 3122 3122 3123 3123 3123 3124 3124 3125 3125 3125 3125 3125 3125 3125 3125 3125 3125 3125 3126 3127 3127 3128 3128 3129 3129 3129 3130 3130 3131 3131 3131 3131 3131 3131 3132 3132 3133 3133 3133 3133 3133 3133 3133 3133 3133 3133 3134 3135 3135 3134 3134 3134 3134 3134 3134 3135 3135 3135 3135 3135 3135 3135 3135 3135 3135 3135 3135 3135 3136 3136 3136 3136 3136
3114 3114 3114 3114 3114 3115 3115 3116 3116 3116 3117 3118 3118 3118 3117 3118 3118 3119 3119 3116 3115 3114 3115 3116 3116 3117 3117 3117 3118 3118 3119 3120 3120 3120 3120 3121 3122 3123 3123 3123 3123 3123 3123 3123 3123 3123 3123 3124 3124 3125 3125 3126 3126 3127 3127 3128 3128 3129 3129 3129 3129 3129 3129 3130 3130 3131 3131 3132 3132 3131 3131 3131 3132 3132 3132 3131 3132 3132 3132 3133 3132 3132 3133 3133 3133 3133 3133 3134 3134 3134 3134 3134 3134 3134 3134 3134 3134 3134 3134 3134 3134 3134 3134
3111 3111 3111 3111 3111 3111 3112 3112 3113 3113 3114 3114 3115 3115 3115 3115 3116 3116 3116 3114 3113 3112 3113 3113 3113 3114 3114 3114 3114 3115 3116 3117 3118 3118 3118 3119 3119 3120 3120 3120 3121 3121 3121 3121 3121 3122 3122 3122 3122 3123 3123 3124 3124 3124 3125 3125 3126 3127 3127 3128 3128 3128 3128 3128 3129 3130 3130 3130 3130 3130 3130 3130 3130 3130 3130 3130 3130 3129 3129 3130 3130 3130 3131 3131 3131 3131 3132 3132 3132 3132 3132 3132 3133 3133 3133 3133 3133 3133 3133 3133 3133 3133 3133
3107 3108 3108 3108 3108 3108 3108 3109 3110 3110 3111 3111 3112 3112 3113 3112 3113 3114 3114 3113 3111 3111 3111 3111 3111 3111 3112 3111 3111 3112 3113 3114 3114 3114 3115 3116 3117 3117 3118 3118 3119 3119 3119 3119 3120 3120 3120 3120 3120 3121 3121 3121 3122 3123 3123 3123 3124 3125 3125 3126 3126 3126 3126 3127 3127 3128 3128 3129 3129 3129 3129 3129 3129 3129 3129 3129 3129 3128 3128 3128 3128 3128 3129 3129 3129 3129 3130 3130 3130 3131 3131 3131 3131 3131 3131 3131 3132 3132 3132 3132 3132 3132 3132
3104 3104 3104 3104 3105 3105 3105 3105 3106 3107 3108 3108 3108 3109 3109 3109 3109 3109 3111 3111 3110 3109 3108 3109 3109 3109 3109 3109 3109 3109 3110 3111 3112 3111 3112 3114 3114 3114 3115 3116 3116 3117 3117 3118 3118 3118 3118 3118 3119 3119 3119 3119 3120 3121 3121 3121 3122 3123 3124 3124 3124 3124 3124 3124 3125 3126 3126 3127 3127 3127 3127 3127 3127 3127 3127 3127 3127 3127 3126 3126 3126 3126 3127 3127 3127 3128 3128 3129 3129 3129 3129 3129 3129 3130 3130 3130 3130 3130 3131 3131 3131 3130 3130
3101 3101 3101 3101 3102 3102 3102 3102 3102 3103 3104 3104 3104 3105 3105 3105 3105 3105 3105 3106 3106 3106 3106 3107 3107 3107 3107 3107 3107 3107 3108 3109 3109 3110 3109 3111 3112 3112 3113 3114 3114 3114 3115 3115 3115 3116 3116 3116 3117 3117 3117 3118 3118 3119 3119 3119 3120 3121 3121 3122 3122 3122 3123 3123 3123 3124 3124 3125 3125 3125 3126 3126 3126 3125 3125 3125 3125 3125 3125 3125 3124 3124 3125 3125 3125 3126 3126 3127 3127 3127 3128 3128 3128 3128 3129 3129 3129 3129 3129 3129 3129 3129 3129
3098 3098 3098 3098 3098 3099 3099 3099 3099 3099 3100 3100 3101 3101 3101 3102 3102 3102 3102 3103 3103 3104 3104 3105 3105 3105 3105 3104 3104 3104 3105 3106 3107 3107 3108 3108 3109 3110 3111 3111 3111 3112 3112 3113 3113 3113 3114 3114 3114 3115 3115 3115 3115 3116 3117 3117 3118 3119 3119 3120 3120 3120 3121 3121 3121 3122 3122 3123 3123 3124 3124 3124 3124 3124 3124 3124 3124 3124 3124 3123 3123 3123 3123 3123 3124 3124 3125 3125 3125 3126 3126 3126 3126 3127 3127 3127 3127 3128 3128 3128 3128 3128 3128
3094 3094 3094 3094 3095 3095 3095 3095 3095 3096 3096 3097 3097 3098 3098 3098 3098 3099 3099 3100 3100 3100 3101 3102 3103 3103 3103 3101 3101 3101 3102 3103 3103 3104 3105 3106 3107 3108 3108 3109 3109 3109 3110 3110 3111 3111 3111 3112 3112 3113 3113 3113 3114 3114 3114 3115 3115 3116 3117 3118 3118 3119 3119 3119 3119 3120 3120 3121 3121 3122 3122 3122 3122 3122 3122 3122 3122 3122 3122 3122 3121 3121 3121 3122 3122 3122 3123 3123 3124 3124 3124 3125 3125 3125 3125 3126 3126 3126 3126 3126 3126 3126 3126
3091 3091 3091 3091 3091 3092 3092 3092 3092 3092 3093 3093 3094 3094 3094 3095 3095 3095 3095 3096 3096 3097 3098 3099 3099 3099 3099 3099 3099 3099 3099 3099 3100 3101 3102 3103 3104 3105 3106 3106 3106 3107 3108 3108 3108 3108 3109 3109 3110 3110 3110 3111 3111 3112 3112 3113 3114 3114 3115 3115 3116 3116 3117 3117 3117 3118 3118 3119 3119 3120 3120 3120 3120 3120 3120 3120 3120 3120 3120 3120 3120 3120 3120 3120 3120 3121 3121 3121 3122 3122 3123 3123 3123 3124 3124 3124 3124 3124 3124 3124 3124 3124 3124
3088 3088 3088 3088 3088 3088 3089 3089 3089 3089 3089 3089 3090 3090 3091 3091 3091 3092 3092 3092 3093 3093 3094 3095 3096 3096 3096 3096 3096 3097 3097 3097 3097 3098 3099 3100 3101 3102 3103 3103 3104 3104 3105 3105 3105 3106 3106 3107 3108 3108 3109 3109 3109 3110 3110 3111 3112 3112 3113 3113 3114 3114 3114 3115 3115 3116 3116 3117 3117 3118 3118 3118 3118 3119 3118 3118 3118 3118 3119 3119 3119 3118 3118 3119 3119 3119 3119 3119 3120 3120 3121 3121 3122 3122 3122 3123 3123 3123 3123 3123 3123 3123 3123
3084 3084 3084 3084 3084 3085 3085 3085 3085 3085 3085 3086 3086 3087 3087 3087 3087 3088 3089 3089 3089 3089 3090 3091 3092 3093 3093 3093 3094 3095 3095 3095 3095 3096 3097 3097 3098 3099 3099 3100 3101 3102 3102 3102 3103 3103 3104 3104 3105 3105 3106 3106 3107 3108 3109 3109 3110 3110 3111 3111 3112 3112 3112 3113 3113 3114 3114 3115 3115 3116 3116 3116 3116 3117 3117 3116 3116 3116 3117 3117 3117 3117 3117 3117 3117 3117 3118 3118 3118 3119 3119 3119 3120 3120 3121 3121 3121 3121 3121 3121 3121 3121 3121
3081 3081 3081 3081 3081 3081 3082 3082 3082 3082 3082 3082 3082 3083 3083 3083 3084 3084 3085 3085 3085 3086 3086 3087 3088 3089 3090 3090 3091 3092 3093 3093 3094 3094 3095 3094 3094 3095 3096 3097 3098 3099 3099 3099 3100 3101 3101 3102 3102 3103 3103 3104 3104 3105 3107 3108 3108 3108 3108 3109 3109 3110 3110 3111 3111 3112 3113 3113 3113 3114 3114 3114 3114 3115 3115 3114 3114 3115 3115 3115 3115 3115 3115 3115 3116 3116 3116 3116 3117 3117 3118 3118 3119 3119 3119 3119 3119 3120 3119 3119 3119 3119 3119
3078 3078 3078 3078 3078 3078 3078 3078 3079 3078 3078 3078 3078 3079 3079 3079 3080 3080 3080 3081 3082 3082 3082 3083 3084 3085 3086 3087 3089 3090 3090 3090 3091 3092 3093 3092 3091 3092 3093 3094 3094 3095 3096 3096 3097 3098 3098 3099 3099 3100 3101 3102 3102 3103 3104 3105 3105 3106 3106 3106 3107 3108 3108 3109 3109 3110 3111 3111 3112 3112 3112 3113 3113 3113 3113 3113 3113 3113 3113 3113 3114 3114 3114 3114 3114 3114 3114 3114 3115 3115 3116 3116 3117 3117 3118 3118 3118 3118 3118 3118 3118 3118 3118
3074 3074 3074 3074 3074 3074 3074 3075 3075 3075 3075 3074 3074 3075 3075 3075 3076 3077 3077 3077 3078 3078 3079 3079 3080 3081 3082 3083 3084 3086 3087 3087 3088 3089 3089 3089 3088 3089 3089 3090 3091 3092 3093 3093 3094 3094 3095 3096 3097 3098 3099 3099 3100 3101 3102 3102 3103 3103 3104 3104 3105 3105 3106 3107 3108 3108 3109 3109 3110 3110 3110 3111 3111 3111 3111 3111 3111 3111 3112 3112 3112 3112 3112 3112 3112 3113 3113 3113 3113 3114 3114 3115 3115 3116 3116 3116 3116 3116 3116 3116 3116 3116 3116
3071 3071 3071 3071 3071 3071 3071 3071 3072 3071 3071 3071 3071 3071 3071 3072 3072 3073 3074 3074 3074 3074 3075 3076 3076 3077 3078 3079 3079 3081 3084 3084 3085 3086 3086 3086 3085 3085 3086 3087 3088 3088 3090 3090 3091 3091 3092 3093 3094 3095 3096 3097 3098 3099 3099 3099 3100 3101 3101 3102 3103 3103 3104 3105 3106 3106 3107 3107 3108 3109 3109 3109 3109 3109 3109 3109 3109 3109 3110 3110 3110 3110 3111 3111 3111 3111 3111 3111 3112 3112 3113 3113 3114 3114 3114 3114 3114 3114 3114 3114 3114 3114 3114
3068 3068 3068 3068 3068 3068 3068 3068 3068 3068 3068 3068 3068 3068 3068 3068 3068 3069 3070 3070 3071 3071 3071 3071 3072 3073 3074 3074 3075 3077 3079 3081 3082 3083 3083 3082 3082 3082 3082 3084 3085 3086 3087 3088 3088 3089 3089 3090 3091 3092 3093 3095 3096 3096 3097 3097 3098 3099 3099 3100 3100 3101 3102 3103 3104 3104 3105 3105 3106 3107 3107 3107 3107 3107 3107 3107 3108 3108 3108 3108 3109 3109 3109 3109 3109 3109 3109 3110 3110 3110 3111 3111 3112 3112 3112 3113 3113 3113 3113 3113 3113 3113 3113
3065 3065 3065 3064 3064 3064 3064 3064 3064 3064 3064 3064 3064 3064 3064 3064 3064 3065 3065 3066 3067 3068 3068 3067 3068 3069 3070 3070 3071 3072 3075 3077 3079 3079 3079 3078 3078 3079 3079 3080 3082 3083 3084 3085 3085 3086 3087 3087 3088 3089 3091 3092 3093 3094 3094 3095 3096 3096 3097 3098 3099 3099 3100 3101 3102 3102 3103 3104 3104 3105 3105 3105 3105 3105 3105 3105 3105 3106 3106 3106 3107 3107 3107 3107 3107 3107 3108 3108 3108 3109 3109 3110 3110 3110 3111 3111 3111 3111 3111 3111 3111 3111 3111
3062 3061 3061 3061 3061 3061 3061 3061 3061 3061 3060 3060 3060 3060 3060 3061 3061 3061 3061 3062 3063 3064 3065 3064 3064 3065 3066 3067 3068 3069 3071 3073 3074 3076 3076 3076 3077 3077 3077 3079 3079 3080 3080 3081 3082 3082 3084 3084 3085 3087 3088 3089 3090 3092 3093 3093 3094 3094 3095 3096 3097 3098 3098 3099 3099 3100 3101 3102 3103 3103 3103 3103 3103 3103 3103 3103 3103 3104 3104 3104 3104 3105 3105 3105 3105 3105 3106 3106 3107 3107 3108 3108 3109 3109 3109 3109 3109 3109 3109 3109 3109 3109 3109
3058 3058 3057 3057 3057 3057 3057 3057 3057 3057 3057 3057 3056 3056 3056 3057 3057 3057 3058 3058 3059 3059 3060 3061 3061 3061 3062 3063 3064 3065 3067 3069 3070 3072 3073 3074 3076 3076 3077 3078 3076 3075 3076 3077 3078 3079 3080 3081 3082 3084 3085 3087 3088 3089 3090 3091 3092 3092 3093 3094 3095 3095 3096 3096 3097 3098 3099 3100 3101 3101 3101 3101 3101 3101 3101 3101 3101 3101 3102 3102 3103 3103 3103 3103 3104 3104 3104 3104 3105 3105 3106 3106 3107 3107 3107 3107 3107 3107 3107 3108 3108 3108 3107
3054 3054 3053 3053 3052 3052 3052 3052 3052 3053 3053 3053 3053 3052 3052 3053 3053 3053 3054 3054 3055 3055 3056 3057 3058 3059 3058 3059 3060 3062 3063 3065 3067 3068 3069 3071 3073 3074 3074 3073 3072 3072 3074 3075 3075 3075 3075 3077 3079 3081 3084 3085 3086 3087 3088 3089 3089 3090 3091 3091 3092 3093 3093 3094 3095 3096 3097 3098 3098 3099 3099 3099 3099 3098 3099 3099 3099 3099 3100 3100 3100 3101 3101 3101 3101 3102 3102 3103 3103 3104 3104 3104 3105 3105 3105 3105 3105 3105 3106 3106 3106 3106 3106
3051 3050 3049 3049 3048 3048 3048 3048 3048 3048 3048 3048 3048 3048 3048 3048 3049 3049 3049 3050 3051 3051 3052 3053 3054 3056 3055 3055 3056 3058 3060 3062 3063 3064 3065 3066 3069 3070 3070 3070 3071 3071 3071 3072 3072 3071 3072 3075 3078 3080 3082 3084 3084 3085 3086 3087 3088 3088 3089 3089 3090 3091 3092 3092 3093 3094 3095 3095 3096 3096 3096 3096 3096 3096 3096 3096 3096 3097 3097 3098 3098 3099 3099 3099 3099 3100 3100 3101 3101 3102 3103 3103 3103 3103 3103 3103 3103 3104 3104 3104 3104 3104 3104
3048 3047 3046 3045 3044 3044 3043 3043 3043 3043 3043 3043 3043 3043 3043 3044 3044 3044 3045 3046 3046 3047 3048 3049 3051 3052 3052 3052 3053 3054 3056 3057 3059 3060 3061 3062 3064 3066 3067 3068 3068 3068 3068 3068 3067 3068 3071 3074 3076 3079 3080 3082 3082 3083 3084 3085 3086 3086 3087 3087 3088 3089 3090 3090 3091 3092 3092 3093 3093 3094 3094 3094 3094 3094 3094 3094 3094 3095 3095 3095 3096 3097 3097 3097 3098 3098 3099 3099 3100 3100 3101 3101 3101 3101 3101 3101 3102 3102 3102 3103 3103 3103 3103
3045 3044 3043 3042 3041 3040 3039 3039 3039 3038 3038 3038 3038 3039 3039 3039 3039 3040 3040 3041 3042 3043 3044 3045 3047 3048 3049 3049 3049 3050 3051 3053 3054 3056 3057 3057 3059 3061 3064 3064 3064 3063 3063 3064 3065 3067 3069 3072 3074 3076 3078 3079 3080 3081 3082 3083 3084 3084 3084 3085 3086 3086 3087 3088 3089 3089 3090 3090 3091 3091 3091 3091 3091 3091 3091 3092 3093 3093 3093 3093 3094 3094 3095 3095 3096 3096 3097 3097 3098 3099 3099 3099 3099 3099 3099 3099 3100 3100 3101 3101 3101 3101 3101
3042 3041 3039 3039 3038 3037 3036 3035 3034 3034 3034 3034 3034 3034 3034 3034 3035 3036 3037 3038 3038 3039 3040 3042 3043 3045 3047 3047 3046 3045 3046 3048 3050 3052 3053 3054 3055 3056 3059 3060 3061 3062 3062 3062 3064 3066 3067 3069 3072 3074 3076 3077 3078 3079 3080 3081 3081 3082 3082 3083 3084 3084 3085 3086 3086 3087 3088 3088 3089 3089 3089 3089 3089 3089 3089 3091 3091 3091 3091 3091 3092 3093 3093 3094 3094 3094 3095 3096 3096 3097 3097 3097 3097 3097 3098 3098 3098 3099 3099 3099 3099 3099 3099
3038 3037 3036 3035 3034 3034 3033 3032 3031 3030 3030 3030 3029 3029 3030 3030 3031 3032 3032 3034 3034 3035 3037 3038 3039 3041 3043 3044 3044 3043 3042 3043 3046 3048 3050 3051 3052 3053 3055 3057 3060 3061 3061 3061 3062 3063 3064 3065 3068 3071 3074 3075 3076 3077 3077 3078 3079 3079 3080 3081 3081 3082 3083 3084 3084 3085 3085 3086 3086 3086 3087 3087 3087 3087 3087 3088 3088 3088 3089 3089 3090 3090 3091 3092 3092 3093 3094 3094 3095 3095 3095 3095 3095 3096 3096 3096 3096 3097 3097 3098 3098 3098 3098
3035 3034 3033 3032 3031 3030 3029 3028 3027 3027 3026 3026 3026 3026 3026 3026 3027 3028 3029 3029 3030 3032 3033 3034 3035 3036 3037 3037 3038 3039 3039 3040 3042 3044 3046 3048 3049 3050 3053 3054 3056 3058 3058 3059 3059 3060 3061 3062 3065 3069 3072 3073 3074 3074 3075 3075 3076 3077 3078 3079 3079 3080 3081 3081 3082 3083 3083 3084 3084 3084 3084 3085 3085 3085 3085 3085 3085 3086 3087 3088 3088 3089 3089 3090 3090 3091 3092 3092 3093 3093 3094 3094 3094 3094 3094 3094 3095 3095 3096 3096 3096 3096 3096
3032 3030 3029 3028 3027 3026 3025 3024 3023 3023 3022 3022 3022 3022 3022 3022 3023 3024 3025 3025 3026 3028 3029 3030 3031 3032 3033 3033 3033 3033 3034 3036 3039 3041 3042 3044 3045 3048 3050 3052 3053 3055 3056 3056 3057 3058 3058 3059 3062 3066 3069 3070 3071 3072 3073 3073 3074 3075 3076 3077 3077 3078 3079 3079 3080 3080 3081 3081 3082 3082 3082 3083 3083 3083 3083 3083 3084 3084 3085 3086 3086 3087 3088 3088 3089 3089 3090 3091 3091 3091 3092 3092 3092 3092 3092 3093 3093 3094 3094 3094 3094 3094 3094